[[{"header":{"parameterUnit":"m.s-1","parameterCategory":1,"la1":30.2991,"la2":30.254,"lo1":-89.0895,"lo2":-89.0444,"dy":0.0017,"dx":0.0017,"nx":28,"ny":28,"refTime":"2026-02-25T03:00:00:Z","depth":0,"parameterNumber":2,"parameterNumberName":"U-component_of_WINDS"},"data":[0,0,0,0,0,0,0,0,0,0,0,0,0,0,0,0,0,0,0,0,0,0,0,0,0,0,0,0,0,0,0,0,0,0,0,0,0,0,0,0,0,0,0,0,0,0,0,0,0,0,0,0,0,0,0,0,0,0,1.8589,1.8591,0,1.8808,1.8811,1.8813,1.8892,1.8891,1.889,1.889,1.9117,1.9124,1.913,0,0,0,0,0,0,0,0,0,0,0,0,0,1.8239,1.8245,1.8589,1.8591,1.8594,1.8808,1.8811,1.8814,1.8892,1.8891,1.889,1.8889,1.9115,1.9123,1.9131,0,0,0,0,0,0,0,0,0,0,0,0,0,1.8418,1.8247,1.8588,1.8659,1.8667,1.8807,1.8811,1.8815,1.8892,1.8891,1.889,1.8889,1.9112,1.9122,1.9132,1.9218,0,0,1.9163,1.9168,0,0,0,0,0,0,0,0,1.8408,1.8431,1.8646,1.8654,1.8664,1.8822,1.8771,1.895,1.8893,1.8807,1.889,1.8888,1.902,1.9037,1.9081,1.9229,1.9239,1.9164,1.917,1.9175,1.9177,0,0,0,0,0,0,0,1.8395,1.8422,1.8676,1.8649,1.866,1.868,1.8705,1.8806,1.8917,1.8814,1.8821,1.8845,1.9025,1.9071,1.9087,1.9242,1.9164,1.9173,1.9179,1.9183,1.9473,1.9474,0,0,0,0,0,0,1.8371,1.8411,1.8669,1.8682,1.853,1.8688,1.8715,1.8772,1.8917,1.8937,1.8846,1.8848,1.9055,1.9075,1.9096,1.9207,1.9174,1.9184,1.919,1.9471,1.9473,1.9475,0,0,0,0,0,0,1.8363,1.8393,1.866,1.8549,1.8584,1.8695,1.8759,1.8777,1.8824,1.8941,1.8961,1.8873,1.9054,1.9081,1.9187,1.9216,1.9189,1.9198,1.9469,1.9472,1.9474,1.9429,0,0,0,0,0,0,1.8353,1.839,1.8423,1.8549,1.859,1.8747,1.8761,1.8782,1.8841,1.8846,1.8971,1.8991,1.9056,1.9172,1.9197,1.9229,1.9206,1.9467,1.947,1.9473,1.9429,1.943,1.9431,0,0,0,0,0,1.834,1.8402,1.8425,1.8455,1.8634,1.8749,1.8772,1.8844,1.8843,1.8878,1.8953,1.8987,1.9208,1.9182,1.9212,1.9247,1.9466,1.9469,1.9473,1.9428,1.9429,1.9431,0,0,0,0,0,0,1.8278,1.842,1.8446,1.8551,1.8637,1.8762,1.8808,1.8843,1.8932,1.8933,1.902,1.9047,1.9147,1.9208,1.9176,1.9338,1.9339,1.9349,1.9295,1.9297,1.9298,1.9282,1.9214,0,0,0,0,0,1.8277,1.8357,1.8477,1.8558,1.86,1.8696,1.8749,1.8797,1.889,1.8927,1.901,1.9099,1.9189,1.9247,1.9336,1.9437,1.9466,1.9476,1.9477,1.9478,1.9485,1.9544,1.955,1.9486,1.9486,1.9486,0,0,1.8275,1.8362,1.8408,1.8548,1.862,1.8703,1.8726,1.8813,1.8875,1.8941,1.9046,1.9109,1.9215,1.9319,1.9369,1.9373,1.9509,1.9482,1.9481,1.9489,1.9548,1.9554,1.956,1.9489,1.9488,1.9488,0,0,1.8313,1.8387,1.8463,1.8534,1.8643,1.8707,1.8725,1.8844,1.8889,1.8995,1.9047,1.9122,1.9275,1.9348,1.9405,1.9471,1.9506,1.9498,1.9503,1.956,1.9565,1.957,1.9593,1.9601,1.9505,1.9505,1.9504,0,1.8297,1.8423,1.8497,1.8581,1.8641,1.8703,1.8781,1.8847,1.898,1.902,1.9022,1.9215,1.9291,1.9413,1.9429,1.9473,1.9497,1.9484,1.9558,1.9563,1.9569,1.9593,1.9602,1.9503,1.9503,1.9503,1.9503,0,1.8398,1.8484,1.8532,1.8657,1.8723,1.8803,1.8891,1.8949,1.8991,1.9054,1.9162,1.9255,1.9364,1.9396,1.9439,1.9525,1.9524,1.9541,1.9543,1.9572,1.9596,1.9606,1.95,1.9501,1.9501,1.9502,0,0,1.8404,1.8569,1.8586,1.8644,1.8768,1.8837,1.892,1.9026,1.9074,1.9163,1.9235,1.9363,1.9379,1.9444,1.9495,1.9544,1.9591,1.9555,1.9559,1.9559,1.9692,1.9679,1.9689,1.9614,1.9617,1.9618,1.9684,0,1.8459,1.8609,1.8679,1.8799,1.888,1.894,1.9012,1.9097,1.9158,1.9237,1.9305,1.9394,1.9408,1.9448,1.9499,1.9574,1.9619,1.957,1.9684,1.9687,1.9655,1.9701,1.9688,1.9745,1.9693,1.9695,1.9696,0,1.8543,1.8632,1.8759,1.8874,1.8911,1.8974,1.9077,1.9151,1.9248,1.929,1.9361,1.9411,1.9501,1.9497,1.9623,1.9588,1.9639,1.9682,1.9687,1.97,1.9693,1.9717,1.9765,1.9774,1.9712,1.971,1.9709,0,1.8535,1.8686,1.8782,1.883,1.8966,1.901,1.9069,1.9165,1.9224,1.9314,1.9354,1.9453,1.9507,1.9584,1.9659,1.9648,1.9778,1.978,1.9815,1.9813,1.984,1.9838,1.9898,1.9872,1.9871,1.9871,1.9871,0,1.859,1.8665,1.8781,1.8839,1.8926,1.9006,1.909,1.9154,1.9239,1.9312,1.937,1.9437,1.9532,1.9612,1.9671,1.9767,1.9791,1.9827,1.9842,1.9823,1.9818,1.9857,1.9856,1.9874,1.9873,1.9873,1.9872,0,1.8596,1.8676,1.8784,1.8904,1.8936,1.8995,1.9099,1.9159,1.9222,1.9314,1.934,1.9441,1.9538,1.962,1.9748,1.9788,1.9887,1.9905,1.9854,1.9862,1.9893,1.9889,1.9981,1.9998,1.9959,1.9959,1.9959,0,1.8625,1.8685,1.8811,1.8864,1.8922,1.9006,1.9067,1.9147,1.9208,1.9323,1.937,1.947,1.9555,1.9707,1.9792,1.989,1.9911,1.9937,1.9926,1.9905,1.9912,1.9908,1.9915,1.9937,1.9937,1.9937,1.9937,0,1.867,1.8706,1.8791,1.8889,1.896,1.9041,1.9125,1.9165,1.9261,1.9326,1.9426,1.9491,1.9621,1.9721,1.9828,1.989,1.993,1.994,1.9953,1.9934,1.9902,1.9921,1.9856,1.9937,1.9937,1.9937,1.9937,1.9937,1.8689,1.8745,1.8843,1.8935,1.9006,1.9083,1.9145,1.9216,1.93,1.9412,1.9454,1.9556,1.9652,1.98,1.9862,1.9943,1.9949,1.9969,1.9974,1.9977,1.9975,1.9888,1.9963,1.9963,1.9963,1.9963,1.9963,0,1.8737,1.8803,1.8887,1.9001,1.9074,1.9104,1.9198,1.9257,1.9346,1.9432,1.9514,1.9628,1.9725,1.9817,1.9919,1.9966,1.9987,1.999,1.9988,2.0002,1.9963,1.9942,1.9972,1.9972,1.9971,1.9971,1.9971,1.9971,1.8771,1.8867,1.8915,1.9047,1.9113,1.9212,1.9263,1.9334,1.9403,1.9528,1.9608,1.9668,1.9757,1.9865,1.9956,1.9981,2.0016,2.0014,2.0044,2.0006,2.0004,2.0003,1.9983,2.0021,2.0021,2.0076,2.0076,2.0076]},{"header":{"parameterUnit":"m.s-1","parameterCategory":1,"la1":30.2991,"la2":30.254,"lo1":-89.0895,"lo2":-89.0444,"dy":0.0017,"dx":0.0017,"nx":28,"ny":28,"refTime":"2026-02-25T03:00:00:Z","depth":0,"parameterNumber":3,"parameterNumberName":"V-component_of_WINDS"},"data":[0,0,0,0,0,0,0,0,0,0,0,0,0,0,0,0,0,0,0,0,0,0,0,0,0,0,0,0,0,0,0,0,0,0,0,0,0,0,0,0,0,0,0,0,0,0,0,0,0,0,0,0,0,0,0,0,0,0,4.9356,4.9357,0,4.9458,4.9459,4.946,4.9442,4.944,4.9438,4.9437,4.9535,4.9539,4.9543,0,0,0,0,0,0,0,0,0,0,0,0,0,4.9142,4.9146,4.9356,4.9357,4.9359,4.9458,4.9459,4.946,4.9442,4.944,4.9438,4.9436,4.9534,4.9539,4.9544,0,0,0,0,0,0,0,0,0,0,0,0,0,4.9238,4.9147,4.9356,4.9362,4.9363,4.9457,4.9459,4.9461,4.9443,4.944,4.9437,4.9435,4.9532,4.9538,4.9544,4.9637,0,0,4.9564,4.9567,0,0,0,0,0,0,0,0,4.9233,4.9246,4.936,4.9361,4.9363,4.9435,4.9419,4.952,4.9443,4.9412,4.9437,4.9434,4.9503,4.9512,4.9537,4.9642,4.9646,4.9565,4.9568,4.9571,4.9573,0,0,0,0,0,0,0,4.9226,4.9242,4.9396,4.9361,4.9364,4.9358,4.9369,4.9438,4.9471,4.9415,4.9414,4.9426,4.9504,4.953,4.9539,4.9647,4.9564,4.957,4.9574,4.9577,4.9836,4.9838,0,0,0,0,0,0,4.9218,4.9236,4.9393,4.9399,4.929,4.9364,4.9376,4.9414,4.9471,4.9477,4.9429,4.9425,4.9521,4.9531,4.9542,4.9656,4.9571,4.9577,4.9581,4.9833,4.9836,4.984,0,0,0,0,0,0,4.9214,4.9233,4.9389,4.9318,4.9337,4.937,4.9414,4.9418,4.9444,4.9481,4.9486,4.945,4.9519,4.9533,4.9615,4.9659,4.958,4.9586,4.9829,4.9834,4.9838,4.9884,0,0,0,0,0,0,4.9208,4.9231,4.9268,4.9319,4.9341,4.9461,4.9416,4.9422,4.9456,4.9453,4.9503,4.9508,4.9518,4.9605,4.9621,4.9667,4.9591,4.9825,4.9831,4.9836,4.9878,4.9889,4.9899,0,0,0,0,0,4.92,4.9275,4.927,4.9288,4.9388,4.9464,4.9476,4.9488,4.946,4.9497,4.952,4.9507,4.9652,4.9614,4.9631,4.9679,4.9822,4.9829,4.9836,4.9874,4.9887,4.9898,0,0,0,0,0,0,4.9225,4.9281,4.9276,4.937,4.9413,4.946,4.9507,4.9501,4.9551,4.9545,4.9556,4.9567,4.965,4.9672,4.9629,4.9773,4.9733,4.9744,4.9756,4.9769,4.9778,4.9771,4.9596,0,0,0,0,0,4.9242,4.9301,4.9346,4.9424,4.9446,4.9473,4.9506,4.9512,4.9556,4.9573,4.9602,4.9644,4.9699,4.9735,4.9787,4.9881,4.9892,4.9923,4.9933,4.9941,4.9951,5.0003,5.0018,4.9862,4.9862,4.9862,0,0,4.9277,4.9315,4.935,4.943,4.9464,4.9524,4.9488,4.9552,4.9596,4.9582,4.9662,4.9685,4.9732,4.9821,4.9861,4.9842,4.9996,4.995,4.9956,4.9961,5.0012,5.0027,5.004,4.9867,4.9866,4.9865,0,0,4.937,4.9405,4.9475,4.951,4.9563,4.9581,4.9597,4.9647,4.9663,4.9744,4.9735,4.9786,4.988,4.9915,4.9945,5.0054,5.0044,5.0071,5.0123,5.0175,5.0187,5.0198,5.0238,5.0252,5.0079,5.008,5.008,0,4.9406,4.9498,4.9511,4.9577,4.9613,4.9605,4.9676,4.9708,4.9774,4.9799,4.9777,4.9897,4.9927,5.0025,5.0052,5.0076,5.0095,5.0065,5.0185,5.0196,5.0206,5.0245,5.026,5.0083,5.0082,5.0082,5.0082,0,4.954,4.9603,4.9653,4.9721,4.9761,4.9829,4.9852,4.9891,4.9893,4.9913,4.9996,5.0033,5.0094,5.0117,5.0118,5.0215,5.0202,5.0182,5.0142,5.0224,5.026,5.0275,5.0087,5.0086,5.0085,5.0084,0,0,4.9651,4.9727,4.9745,4.9777,4.9835,4.9884,4.9951,5.0013,5.0047,5.0093,5.015,5.0231,5.0214,5.0248,5.0253,5.0298,5.0384,5.0273,5.0274,5.0293,5.0494,5.051,5.0526,5.0378,5.038,5.0383,5.0491,0,4.9751,4.9874,4.9888,4.9996,5.0055,5.005,5.0109,5.015,5.0171,5.0223,5.0244,5.0303,5.0275,5.0296,5.034,5.0364,5.0425,5.0357,5.043,5.0432,5.042,5.0545,5.0561,5.0661,5.0505,5.0507,5.0509,0,4.9885,4.9938,5.0053,5.0105,5.013,5.0183,5.0242,5.0292,5.0339,5.0351,5.039,5.0391,5.0459,5.0417,5.0512,5.0465,5.0496,5.0512,5.0517,5.0524,5.0476,5.0557,5.0693,5.0709,5.0531,5.0529,5.0528,0,4.9956,5.0056,5.0138,5.0165,5.0228,5.0265,5.0293,5.0338,5.0374,5.0425,5.0449,5.0506,5.0538,5.0581,5.0597,5.0564,5.0691,5.0649,5.0703,5.0703,5.073,5.0728,5.0874,5.0749,5.0748,5.0748,5.0748,0,5.0067,5.0138,5.0172,5.0222,5.0302,5.0317,5.0395,5.042,5.046,5.0515,5.0512,5.0563,5.058,5.0633,5.0645,5.0723,5.0737,5.0748,5.075,5.0749,5.0747,5.0769,5.0763,5.0752,5.0751,5.075,5.075,0,5.016,5.0186,5.0276,5.0329,5.0344,5.04,5.0445,5.0493,5.0514,5.0583,5.06,5.0631,5.0695,5.0715,5.0789,5.0798,5.0889,5.0884,5.0874,5.0874,5.0927,5.0922,5.1092,5.1116,5.0974,5.0975,5.0977,0,5.023,5.0285,5.0345,5.0383,5.0413,5.0473,5.0512,5.0529,5.0569,5.0629,5.067,5.0733,5.0785,5.0885,5.0914,5.0972,5.0969,5.1025,5.0978,5.0975,5.0971,5.0968,5.0974,5.1034,5.1035,5.1037,5.1038,0,5.0351,5.0362,5.0419,5.0482,5.0529,5.0578,5.0625,5.0655,5.068,5.0725,5.0791,5.0831,5.091,5.0972,5.1032,5.1058,5.1052,5.1052,5.1068,5.1067,5.1059,5.1066,5.0899,5.1048,5.1047,5.1046,5.1046,5.1045,5.0435,5.0485,5.0536,5.06,5.0638,5.0683,5.0732,5.076,5.0816,5.0884,5.089,5.0961,5.1008,5.1087,5.1117,5.1172,5.1156,5.1178,5.1184,5.1189,5.1194,5.105,5.1182,5.1182,5.1182,5.1182,5.1181,0,5.0557,5.0591,5.065,5.0718,5.0769,5.0761,5.0814,5.0856,5.092,5.0965,5.1017,5.1093,5.1154,5.1189,5.125,5.1287,5.1286,5.1303,5.13,5.1307,5.1204,5.1186,5.1303,5.1303,5.1303,5.1303,5.1303,5.1303,5.0627,5.0711,5.0728,5.0831,5.0863,5.0935,5.0966,5.1007,5.1043,5.113,5.1182,5.1205,5.1246,5.131,5.1366,5.1374,5.1397,5.1416,5.1422,5.1326,5.1314,5.1302,5.1284,5.142,5.142,5.152,5.1521,5.1522]}]]